Powrót do katalogu

STARLINK-30889

AktywnyŁącznośćVLEO
NORAD 58368·PAYLOAD·🇺🇸 United States

Wystrzelony Nov 18, 2023 z Cape Canaveral Space Force Station

Loading…

Następne Przeloty (najbliższe 24 godziny)

TLE

ŚwieżeSource: CelesTrak SupGP

Epoka: Sep 15, 2026, 02:49 UTC

1 58368C 23177T   26258.11784722  .00030079  00000+0  10894-2 0  2585
2 58368  43.0016   0.9955 0001589 263.2496 177.3052 15.27565645    11

Śledź STARLINK-30889 w czasie rzeczywistym z AllMySat

Download on the App Store